Location: C�an Torras
(41.5052°N, 1.9280°E)
Time: 02:07:25
(UTC+00:00)

X-37B - Pass Details

Date: 20 January 2021
Orbit: 383 x 391 km, 45.0° (Epoch: 27 February)

Event Time Altitude Azimuth Distance (km) Brightness Sun altitude
Rises 19:03:45 0° 259° (W) 2,270 5.9 -24.1°
Reaches altitude 10° 19:05:50 10° 263° (W) 1,418 4.5 -24.5°
Enters shadow 19:07:36 29° 274° (W) 744 2.6 -24.9°
